Regional Weather Roundup
Issued by NWS

Home | Current Version | Previous Version | Text Only | Print | Product List | Glossary On
Versions: 1 2 3 4 5 6 7 8 9 10 11 12 13 14 15 16 17 18 19 20 21 22 23 24 25 26 27 28 29 30 31 32 33 34 35 36 37 38 39 40 41 42 43 44 45 46 47 48 49 50
378
ASUS44 KJAN 300803
RWRMS

MISSISSIPPI HOURLY WEATHER ROUNDUP
NATIONAL WEATHER SERVICE JACKSON MS
300 AM CDT THU OCT 30 2014

NOTE: "FAIR: INDICATES FEW OR NO CLOUDS BELOW 12,000 FEET WITH NO
SIGNIFICANT WEATHER AND/OR OBSTRUCTIONS TO VISIBILITY.

MSZ001>002-007>008-010>013-018>021-025>028-034>036-300900-
NORTHWEST MISSISSIPPI

CITY           SKY/WX    TMP DP  RH WIND       PRES   REMARKS
CLARKSDALE     FAIR      48  48 100 CALM      30.15S
CLEVELAND      FAIR      48  48  99 CALM      30.13S
GREENWOOD      CLEAR     43  41  93 NE3       30.13S
GREENVILLE     CLEAR     48  45  89 CALM      30.13S
GRENADA        FAIR      43  43 100 CALM      30.13F
OLIVE BRANCH   CLEAR     45  45 100 CALM      30.14F
OXFORD         FAIR      41  39  93 CALM      30.15S
TUNICA         SUNNY     45  45 100 CALM      30.15S
$$

MSZ003>006-009-014>017-022>024-029>033-037>039-300900-
NORTHEAST MISSISSIPPI

CITY           SKY/WX    TMP DP  RH WIND       PRES   REMARKS
COLUMBUS AFB   CLEAR     42  42  99 CALM      30.12S FOG
CORINTH        FAIR      41  39  93 CALM      30.13S FOG
GOLDN TRIANGLE CLEAR    N/A N/A N/A NW3       30.11S
STARKVILLE       N/A     41  41 100 CALM      30.12S
TUPELO         CLEAR     45  42  89 CALM      30.12S
$$

MSZ040-058-300900-
CENTRAL MISSISSIPPI

CITY           SKY/WX    TMP DP  RH WIND       PRES   REMARKS
JACKSON INTL   CLEAR     45  44  97 CALM      30.12S FOG
JACKSON HAWKNS CLEAR     53  44  71 N3        30.13S
MERIDIAN KEY   CLEAR     43  41  93 CALM      30.11F
MERIDIAN NAS   CLEAR     43  40  89 CALM      30.12S
RAYMOND        FAIR      45  39  81 CALM      30.13S FOG
VICKSBURG      CLEAR     43  41  93 CALM      30.13S
$$

MSZ059>079-300900-
SOUTH MISSISSIPPI

CITY           SKY/WX    TMP DP  RH WIND       PRES   REMARKS
BROOKHAVEN     FAIR      46  45  93 N3        30.13S
COLUMBIA         N/A     46  45  93 MISG      30.09F
HATTIESBURG    PTCLDY    52  50  93 NW3       30.10F
MCCOMB         CLEAR     55  45  68 N5        30.10F
NATCHEZ        CLEAR     45  41  87 N3        30.13S
PINE BELT      CLEAR     52  43  71 N7        30.11S
$$

MSZ080>082-300900-
COASTAL MISSISSIPPI

CITY           SKY/WX    TMP DP  RH WIND       PRES   REMARKS
BILOXI         PTCLDY    62  52  70 N10       30.05F
PASCAGOULA     PTCLDY    61  55  81 N9        30.05F
GULFPORT       PTCLDY    61  48  62 N9        30.05F
$$



USA.gov is the U.S. government's official web portal to all federal, state and local government web resources and services.